Location: Gandikunta
(16.3784°N, 80.8378°E)
Time: 20:12:28
(UTC+00:00)

ATLAS 5 CENTAUR R/B - Pass Details

Date: 19 May 2025
Orbit: 387 x 1113 km, 63.3° (Epoch: 21 June)

Event Time Altitude Azimuth Distance (km) Brightness Sun altitude
Rises 14:16:17 0° 331° (NNW) 3,257 6.2 -17.2°
Reaches altitude 10° 14:18:32 10° 329° (NNW) 2,432 5.5 -17.7°
Maximum altitude 14:24:16 72° 246° (WSW) 993 2.6 -18.9°
Enters shadow 14:29:09 20° 165° (SSE) 2,189 3.9 -19.9°
